{"data":{"norad_id":68714,"intl_designator":"2026-081R","name":"STARLINK-37225","alt_names":[],"object_type":"PAYLOAD","status":"ACTIVE","operator":null,"country":"US","launch_date":"2026-04-14","launch_site_code":"AFETR","launch_vehicle":null,"mission":null,"orbit_class":"UNKNOWN","rcs_meters":null,"size_class":null,"mass_kg":null,"dimensions":null,"purposes":["comms"],"wikipedia_slug":null,"has_3d_model":false,"image_url":null,"decayed_at":null,"tle_current":{"epoch":"2026-05-25T00:34:21.159264Z","epoch_age_seconds":66986,"freshness":"FRESH","line1":"1 68714U 26081R   26145.02385601  .00017755  00000+0  32632-3 0  9999","line2":"2 68714  53.1604  39.9802 0000427  95.3859 264.7199 15.49328640  6422","mean_motion":15.4932864,"eccentricity":4.27e-5,"inclination_deg":53.1604,"raan_deg":39.9802,"arg_perigee_deg":95.3859,"mean_anomaly_deg":264.7199,"bstar":0.00032632,"rev_number":642,"period_min":92.943482926902,"perigee_km":418.3986174282,"apogee_km":418.9790663551,"semimajor_km":6796.8258418917,"source":"CELESTRAK","updated_at":"2026-05-25T13:38:22.000919Z"}}}